sat.trackr.live / text

‹ back to catalog

KUIPER-00079

NORAD 64826 · 2025-151L

PAYLOAD ACTIVE UNKNOWN

§ Identity

Operator
Country
US
Launch date
2025-07-16
Launch site
AFETR
Launch vehicle
Mass (kg)
RCS (m²)

External: N2YO · Heavens-Above · Gunter

§ Orbital elements

Epoch: 2026-09-21T20:48:04.144896Z

Period
97.30 min
Inclination
51.8987°
Eccentricity
0.0001168
Mean motion
14.79929478 rev/d
Perigee alt
628.7 km
Apogee alt
630.4 km
Semi-major
7,007.7 km
B*
2.6773e-4
RAAN
153.0542°
Arg perigee
90.2071°
Mean anomaly
269.9025°
Rev number
6,555

§ Raw data

KUIPER-000791 64826U 25151L   26264.86671464  .00001820  00000+0  26773-3 0  99902 64826  51.8987 153.0542 0001168  90.2071 269.9025 14.79929478 65555

JSON: /api/v1/satellites/64826 · /tle

For live sub-satellite position, see the globe view (requires WebGL).

§ Visibility from observer

Set your observer location to see the next 7 days of passes ≥ 10°. The values pass through the URL so the page stays shareable.

No JS? Fill the form by hand. The geolocation button needs JavaScript.